AO-07 1 07530U 74089B 22062.92436316 -.00000050 00000-0 -26856-4 0 9997 2 07530 101.8938 42.5058 0011935 243.9066 183.2098 12.53653242164241 UO-11 1 14781U 84021B 22062.89781565 .00000505 00000-0 67575-4 0 9991 2 14781 97.6107 55.1985 0007313 316.7422 43.3218 14.83468109 24398 LO-19 1 20442U 90005G 22062.88047208 .00000061 00000-0 38861-4 0 9992 2 20442 98.7805 26.2086 0012713 116.3780 243.8710 14.33026280677986 HUBBLE 1 20580U 90037B 22062.64059868 .00001716 00000-0 91808-4 0 9997 2 20580 28.4694 149.6732 0002459 342.5035 132.0117 15.10085848550201 MET-2/21 1 22782U 93055A 22062.88743272 .00000062 00000-0 43069-4 0 9990 2 22782 82.5456 98.0309 0020987 284.6672 248.7899 13.83847823439407 AO-27 1 22825U 93061C 22062.94222424 .00000030 00000-0 29500-4 0 9992 2 22825 98.8997 91.6834 0008457 6.6163 353.5129 14.30147697483070 IO-26 1 22826U 93061D 22062.92083350 .00000036 00000-0 31848-4 0 9998 2 22826 98.8941 91.5481 0008732 352.9866 7.1193 14.30490180483329 FO-29 1 24278U 96046B 22062.91631831 .00000001 00000-0 36744-4 0 9991 2 24278 98.5310 101.0591 0350112 196.9535 161.9661 13.53110769261339 NOAA-15 1 25338U 98030A 22062.89861233 .00000068 00000-0 46993-4 0 9992 2 25338 98.6573 93.7507 0009490 242.0496 117.9724 14.26094216237975 GO-32 1 25397U 98043D 22062.80261801 .00000017 00000-0 27180-4 0 9998 2 25397 98.8055 13.0652 0002256 68.5567 291.5851 14.23734540228390 ISS 1 25544U 98067A 22063.02154198 .00007382 00000-0 13929-3 0 9990 2 25544 51.6442 137.3969 0005458 210.0500 203.1303 15.49558653328873 NO-44 1 26931U 01043C 22062.89194954 .00000051 00000-0 51344-4 0 9997 2 26931 67.0530 330.8611 0007503 277.8053 82.2196 14.30666825 66307 SO-50 1 27607U 02058C 22062.89816930 .00000238 00000-0 53838-4 0 9997 2 27607 64.5535 264.8625 0071019 315.5465 43.9950 14.75935282 32799 CO-55 1 27844U 03031E 22062.91289362 .00000141 00000-0 83081-4 0 9994 2 27844 98.6815 72.1823 0010711 52.2319 307.9827 14.22388656968867 CO-57 1 27848U 03031J 22062.84333951 .00000115 00000-0 71686-4 0 9993 2 27848 98.6865 72.6526 0010748 65.0585 295.1708 14.21954375968679 RS-22 1 27939U 03042A 22062.90040432 .00000498 00000-0 97224-4 0 9992 2 27939 98.1725 203.7671 0013084 175.6402 184.4916 14.67158019985569 NOAA-18 1 28654U 05018A 22062.88960456 .00000145 00000-0 10254-3 0 9992 2 28654 98.9604 133.3671 0013287 269.0908 90.8741 14.12694251865072 CO-58 1 28895U 05043F 22062.87129393 .00000550 00000-0 11342-3 0 9992 2 28895 98.0883 196.0013 0017903 112.6657 247.6441 14.64116611871968 Falconsat-3 1 30776U 07006E 22062.79677572 .00019530 00000-0 38790-3 0 9996 2 30776 35.4318 228.4796 0001515 87.5921 272.4982 15.46088172833180 CO-65 1 32785U 08021C 22062.48006470 .00001227 00000-0 13558-3 0 9994 2 32785 97.6454 36.7994 0011696 219.9254 140.1105 14.89117122750780 AAUSAT2 1 32788U 08021F 22062.89136981 .00002474 00000-0 22275-3 0 9994 2 32788 97.5258 52.0697 0012782 115.1210 245.1340 14.96425981752648 DO-64 1 32789U 08021G 22062.82157220 .00006799 00000-0 40932-3 0 9991 2 32789 97.3513 93.0880 0010096 337.2240 22.8541 15.11081341755963 CO-66 1 32791U 08021J 22062.56921851 .00001863 00000-0 18902-3 0 9993 2 32791 97.6014 42.5032 0012915 175.9955 184.1370 14.91975507751483 RS-30 1 32953U 08025A 22062.70497965 .00000021 00000-0 80971-4 0 9998 2 32953 82.4981 249.6804 0019877 130.2215 230.0605 12.43107319625195 PRISM 1 33493U 09002B 22062.89364893 .00003744 00000-0 31650-3 0 9991 2 33493 98.2231 43.5805 0016201 140.0753 220.1663 14.98643172713167 NOAA-19 1 33591U 09005A 22062.87905409 .00000090 00000-0 73989-4 0 9998 2 33591 99.1619 94.7310 0014744 122.9320 237.3271 14.12534269673289 SRMSAT 1 37841U 11058D 22062.67724226 .00000355 00000-0 50086-4 0 9992 2 37841 19.9709 174.2815 0011727 262.2619 244.6448 14.10728530536281 HRBE 1 37855U 11061F 22062.88381795 .00005062 00000-0 23772-3 0 9995 2 37855 101.7108 126.4962 0160339 18.0580 342.6240 15.09847373565297 RS-40 1 38735U 12041C 22062.77721544 -.00000001 00000-0 -79981-4 0 9994 2 38735 82.4810 331.3976 0016139 241.6837 118.2619 12.42583916435397 ZACUBE-1 1 39417U 13066B 22062.91303786 .00001411 00000-0 17948-3 0 9998 2 39417 97.6250 39.2813 0059155 31.9916 328.4867 14.81889208447490 Delfi-N3xt 1 39428U 13066N 22062.80169023 .00001353 00000-0 21835-3 0 9997 2 39428 97.8070 1.8051 0117153 255.5001 103.3184 14.68564038443028 GOMX-1 1 39430U 13066Q 22062.84629882 .00000941 00000-0 17680-3 0 9993 2 39430 97.8156 336.0661 0150660 18.2481 342.4052 14.59886394440885 LO-74 1 39440U 13066AA 22062.89360140 .00000940 00000-0 13475-3 0 9995 2 39440 97.7135 25.0005 0080725 113.4407 247.5317 14.76584839444701 AO-73 1 39444U 13066AE 22062.86829529 .00001718 00000-0 21226-3 0 9994 2 39444 97.6136 41.6337 0057871 21.2307 339.1289 14.82876279445872 SPROUT 1 39770U 14029E 22062.82913505 .00003426 00000-0 36509-3 0 9998 2 39770 97.9294 179.3146 0009565 77.1327 283.0974 14.89532452421936 DTUSAT-2 1 40030U 14033W 22062.78767981 .00001294 00000-0 14198-3 0 9995 2 40030 97.9317 355.2176 0012930 46.6682 313.5610 14.89427409417910 EO-80 1 40032U 14033Y 22062.75764788 .00001433 00000-0 15663-3 0 9999 2 40032 97.9323 355.1989 0012888 47.5682 312.6623 14.89392355417883 HODOYOSHI-1 1 40299U 14070B 22062.80158894 .00003054 00000-0 12216-3 0 9998 2 40299 97.2569 134.0691 0013400 145.7767 353.5685 15.25757231406949 FIREBIRD FU3 1 40377U 15003B 22062.52745834 .00008057 00000-0 26689-3 0 9994 2 40377 99.1127 264.0933 0109133 23.3244 337.2886 15.26042843392246 FIREBIRD FU4 1 40378U 15003C 22062.49342538 .00008101 00000-0 26768-3 0 9993 2 40378 99.1131 264.2400 0109108 23.1300 337.4790 15.26119199392241 GRIFEX 1 40379U 15003D 22062.72791713 .00006604 00000-0 24919-3 0 9995 2 40379 99.1178 251.5014 0122194 61.1466 300.1964 15.20724763391543 XW-2A 1 40903U 15049E 22062.79842997 .00011772 00000-0 21858-3 0 9997 2 40903 97.1992 121.4300 0012325 140.3703 326.6790 15.48997742362883 XW-2C 1 40906U 15049H 22062.83504722 .00003271 00000-0 16473-3 0 9998 2 40906 97.4938 67.1907 0014598 14.0073 106.6810 15.17810264356891 XW-2D 1 40907U 15049J 22062.82329417 .00003777 00000-0 18723-3 0 9995 2 40907 97.4928 67.0849 0013819 10.4614 68.0324 15.18277416356934 LILACSAT-2 1 40908U 15049K 22062.84904233 .00001922 00000-0 10604-3 0 9993 2 40908 97.5152 64.5437 0016384 28.2237 93.7604 15.15063851356498 XW-2E 1 40909U 15049L 22062.85233860 .00005778 00000-0 26063-3 0 9995 2 40909 97.4685 71.4523 0012298 353.7407 128.2501 15.21341751357347 XW-2F 1 40910U 15049M 22062.87488723 .00005791 00000-0 26500-3 0 9990 2 40910 97.4758 70.5850 0013398 353.6471 124.0796 15.20831273357123 XW-2B 1 40911U 15049N 22062.84896157 .00003804 00000-0 18904-3 0 9994 2 40911 97.4917 67.7428 0013831 11.5075 109.4532 15.18181927356824 DCBB 1 40912U 15049P 22062.81999231 .00006492 00000-0 27352-3 0 9992 2 40912 97.4426 74.8983 0012303 320.3200 164.5361 15.23615473357657 TW-1A 1 40928U 15051D 22062.86321957 .00020371 00000-0 34161-3 0 9999 2 40928 97.0534 87.0058 0010826 63.3847 54.5919 15.51783821361823 IO-86 1 40931U 15052B 22059.65127196 .00000934 00000-0 40956-4 0 9999 2 40931 5.9957 225.1348 0012656 66.0373 294.1511 14.76739306347232 ATHENOXAT-1 1 41168U 15077C 22062.47353478 .00008493 00000-0 36991-3 0 9998 2 41168 14.9838 154.1724 0010215 192.6024 259.7031 15.17995361344164 ChubuSat-2 1 41338U 16012B 22062.87419242 .00001304 00000-0 93136-4 0 9992 2 41338 31.0039 335.9094 0013571 186.5350 173.5110 15.00920132331609 ChubuSat-3 1 41339U 16012C 22062.80732778 .00001166 00000-0 82340-4 0 9999 2 41339 31.0126 333.3262 0013165 193.9678 166.0631 15.01034934331590 Horyu-4 1 41340U 16012D 22062.90577796 .00002025 00000-0 14206-3 0 9999 2 41340 31.0050 312.7899 0013755 231.8561 128.0836 15.02540797331835 e-st@r-II 1 41459U 16025D 22062.67894833 .00007046 00000-0 32851-3 0 9996 2 41459 98.1701 220.2984 0152167 267.7401 90.6401 15.10471189321516 AAUSAT4 1 41460U 16025E 22062.89359297 .00013441 00000-0 57530-3 0 9999 2 41460 98.1677 225.8818 0136689 246.1054 112.5897 15.14783066321936 LO-87 1 41557U 16033B 22062.85818576 .00007284 00000-0 23891-3 0 9992 2 41557 97.3871 160.6415 0012740 39.3836 96.1701 15.31837926321205 NuSat2 1 41558U 16033C 22062.83148850 .00007022 00000-0 21593-3 0 9999 2 41558 97.4032 165.7337 0011840 30.8816 122.6828 15.33932087321446 Lapan A3 1 41603U 16040E 22062.81573030 .00000802 00000-0 39824-4 0 9994 2 41603 97.2225 104.3803 0013498 164.8935 313.8716 15.20334161315984 Pratham 1 41783U 16059A 22062.84922010 .00000225 00000-0 52300-4 0 9995 2 41783 97.9293 108.5592 0034317 145.7274 214.6153 14.63246253290180 TY-1 1 41844U 16066D 22062.86908773 .00007509 00000-0 28014-3 0 9999 2 41844 97.3953 75.5426 0012239 308.0336 173.0163 15.27631842295475 CAS-2T 1 41847U 16066G 22062.89485921 .00000630 00000-0 10414-3 0 9993 2 41847 98.5648 127.6314 0364955 165.3842 195.8246 14.38389176279172 EO-88 1 42017U 17008BX 22062.67597093 .00008699 00000-0 29256-3 0 9997 2 42017 97.2828 130.5432 0004107 262.5451 97.5324 15.31031807280871 CAS-4B 1 42759U 17034B 22062.84960692 .00002068 00000-0 13479-3 0 9991 2 42759 43.0158 194.3795 0009056 337.8442 158.3378 15.10979262260374 CAS-4A 1 42761U 17034D 22062.82470142 .00002291 00000-0 14755-3 0 9994 2 42761 43.0161 193.3813 0009281 339.5731 151.6401 15.11067211260377 NIUSat 1 42766U 17036B 22062.90814739 .00005103 00000-0 21075-3 0 9992 2 42766 97.2171 104.5679 0013753 347.4238 12.6655 15.24357680260718 Aalto 1 1 42775U 17036L 22062.84384185 .00004049 00000-0 16961-3 0 9998 2 42775 97.2129 104.5712 0012471 347.6880 12.4051 15.24017433260683 URSA MAIOR 1 42776U 17036M 22062.85752693 .00004514 00000-0 18652-3 0 9999 2 42776 97.2143 105.2201 0012145 346.7068 13.3848 15.24420818260710 Max Valier Sat 1 42778U 17036P 22062.88349363 .00004225 00000-0 17124-3 0 9992 2 42778 97.2214 107.6666 0010676 348.7548 11.3451 15.25125664260804 Pegasus 1 42784U 17036V 22062.91630831 .00006132 00000-0 23787-3 0 9997 2 42784 97.2152 108.3674 0010305 351.1745 8.9311 15.26419916260900 NUDATSat 1 42787U 17036Y 22062.91028222 .00009896 00000-0 34764-3 0 9992 2 42787 97.2206 111.8020 0009362 341.9056 18.1848 15.29539661260945 SUCHAI 1 1 42788U 17036Z 22062.68672587 .00007260 00000-0 27102-3 0 9997 2 42788 97.2161 109.5336 0009590 347.7352 12.3653 15.27637665261027 SKCUBE 1 42789U 17036AA 22062.70761429 .00006544 00000-0 24799-3 0 9998 2 42789 97.2158 109.1187 0009602 348.7303 11.3720 15.27177396260927 VZLUSAT 1 1 42790U 17036AB 22062.64983112 .00009327 00000-0 32858-3 0 9995 2 42790 97.2187 111.5299 0008491 342.2430 17.8513 15.29473190261056 VENTA 1 1 42791U 17036AC 22062.90768725 .00005873 00000-0 22478-3 0 9995 2 42791 97.2156 109.2665 0009306 348.9827 11.1207 15.26894000260941 Robusta 1B 1 42792U 17036AD 22062.69378259 .00006947 00000-0 26018-3 0 9998 2 42792 97.2156 109.6003 0009153 349.2763 10.8280 15.27547289260969 D-SAT 1 42794U 17036AF 22062.74388435 .00001510 00000-0 13263-3 0 9992 2 42794 97.4544 73.7613 0126070 79.1954 282.3427 14.92053539255718 TechnoSat 1 42829U 17042E 22062.83654781 .00000751 00000-0 80021-4 0 9991 2 42829 97.4354 283.0646 0014272 6.9565 353.1850 14.91558310252343 QIKCOM-1 1 42983U 98067NF 22062.21237130 .00041419 00000-0 24729-3 0 9993 2 42983 51.6366 17.0429 0001654 188.2603 171.8370 15.77458476248074 AO-91 1 43017U 17073E 22062.69882428 .00002114 00000-0 16499-3 0 9992 2 43017 97.6878 321.2120 0251926 173.5444 186.9121 14.80459109231461 PICSAT 1 43132U 18004X 22062.72848455 .00006905 00000-0 25278-3 0 9998 2 43132 97.3817 139.8938 0008585 22.6444 337.5172 15.28318148230249 AO-92 1 43137U 18004AC 22062.87441137 .00005470 00000-0 20809-3 0 9996 2 43137 97.3786 139.1184 0008650 25.6865 334.4802 15.27142300230226 TianYi 2 1 43155U 18008A 22062.85948551 .00003729 00000-0 20968-3 0 9991 2 43155 97.3687 124.6986 0017647 146.7499 326.4640 15.13749946227297 Zhou Enlai 1 43156U 18008B 22062.85733619 .00004083 00000-0 23147-3 0 9995 2 43156 97.3733 124.5485 0014710 146.1419 334.5006 15.13436982227229 TianYi 6 1 43158U 18008D 22062.78013846 .00003570 00000-0 20731-3 0 9998 2 43158 97.3673 122.6497 0013587 145.8528 346.7193 15.12667514227121 S-Net D 1 43186U 18014G 22062.73269978 .00001151 00000-0 10377-3 0 9998 2 43186 97.6651 330.4877 0009744 295.9326 64.0891 14.97450632223095 S-Net B 1 43187U 18014H 22062.73273524 .00001157 00000-0 10432-3 0 9999 2 43187 97.6649 330.4441 0009742 295.8102 64.2114 14.97449586223095 S-Net A 1 43188U 18014J 22062.73296594 .00001161 00000-0 10465-3 0 9993 2 43188 97.6653 330.5017 0009733 295.9550 64.0669 14.97448870223097 S-Net C 1 43189U 18014K 22062.73354217 .00001060 00000-0 95980-4 0 9995 2 43189 97.6648 330.4349 0009715 295.7168 64.3050 14.97446856221640 FMN 1 1 43192U 18015A 22062.85988530 .00014924 00000-0 47675-3 0 9994 2 43192 97.5174 205.7124 0013001 47.5648 107.3175 15.32483542227242 Shaonian Xing 1 43199U 18015H 22062.91918931 .00009811 00000-0 33362-3 0 9993 2 43199 97.4956 201.7721 0015318 57.8764 60.8529 15.30544629227283 SurfSat 1 43614U 18070B 22062.90265469 .00019017 00000-0 37077-3 0 9992 2 43614 93.0223 54.2411 0015866 78.2302 282.0736 15.47333597194700 CP-7 DAVE 1 43615U 18070C 22062.91901896 .00018221 00000-0 36216-3 0 9995 2 43615 93.0224 54.1555 0016120 78.4543 281.8524 15.46773959194681 ELFIN-B 1 43616U 18070D 22062.69314822 .00031856 00000-0 50772-3 0 9990 2 43616 93.0157 54.7562 0015251 74.3951 285.8993 15.53008767194874 ELFIN-A 1 43617U 18070E 22062.92576274 .00032223 00000-0 49570-3 0 9991 2 43617 93.0229 55.9970 0014291 71.2946 288.9866 15.54004186194947 CubeBel-1 1 43666U 18083E 22062.81827598 .00005573 00000-0 25306-3 0 9994 2 43666 97.4339 92.7976 0013484 351.1034 95.5059 15.21112752185418 Changshagaoxin 1 43669U 18083H 22062.84330028 .00004902 00000-0 23235-3 0 9991 2 43669 97.4266 89.1190 0009726 350.5914 182.1853 15.19727023185259 Ten-Koh 1 43677U 18084G 22062.91012797 .00000918 00000-0 99239-4 0 9990 2 43677 97.9464 192.1409 0014696 258.5612 101.3955 14.90751613181954 PO-101 1 43678U 18084H 22062.82573218 .00000258 00000-0 31252-4 0 9999 2 43678 97.9512 194.9853 0008610 277.1711 82.8511 14.91939054182105 IRVINE 01 1 43693U 18088D 22062.92342986 .00017702 00000-0 59485-3 0 9996 2 43693 85.0349 21.9575 0016721 133.9626 226.3003 15.30572572184042 QO-100 1 43700U 18090A 22062.88054595 .00000127 00000-0 00000-0 0 9998 2 43700 0.0115 128.1666 0002318 245.9469 130.2658 1.00272994 11973 Reaktor Hello World 1 43743U 18096AA 22062.75424416 .00006898 00000-0 23080-3 0 9997 2 43743 97.3611 143.2664 0017434 78.1298 282.1897 15.31146781181778 MinXSS-2 1 43758U 18099A 22062.90588206 .00001127 00000-0 10374-3 0 9993 2 43758 97.6360 133.3692 0014108 258.8048 101.1589 14.96646792177314 AO-95 1 43770U 18099N 22062.85195452 .00001387 00000-0 12915-3 0 9999 2 43770 97.6333 131.9312 0013024 269.1839 90.7890 14.95825191177229 RANGE-B 1 43772U 18099Q 22062.81780560 .00002185 00000-0 19822-3 0 9998 2 43772 97.6440 133.3432 0012387 254.6507 105.3346 14.96287899177239 RANGE-A 1 43773U 18099R 22062.75128186 .00000870 00000-0 83373-4 0 9994 2 43773 97.6265 130.8664 0011924 255.8562 104.1334 14.95590203177198 MOVE-II 1 43780U 18099Y 22062.88862922 .00001979 00000-0 17796-3 0 9995 2 43780 97.6370 132.8663 0011580 264.5047 95.4854 14.96748584177262 SNUSat 2 1 43782U 18099AA 22062.71160129 .00001138 00000-0 10635-3 0 9991 2 43782 97.6333 132.2245 0011370 254.1169 105.8800 14.96028537177222 SnugLite 1 43784U 18099AC 22062.89617469 .00000961 00000-0 90220-4 0 9998 2 43784 97.6299 132.0664 0013474 262.2015 97.7677 14.96200375177273 ITASat 1 1 43786U 18099AE 22062.79163635 .00001346 00000-0 12475-3 0 9993 2 43786 97.6355 132.7278 0013682 261.3461 98.6210 14.96052883177252 EAGLET 1 1 43790U 18099AJ 22062.90327409 .00000376 00000-0 38277-4 0 9993 2 43790 97.6349 133.3448 0011933 265.8812 94.1046 14.96334043177004 ESEO 1 43792U 18099AL 22062.73784523 .00001040 00000-0 97773-4 0 9995 2 43792 97.6308 132.5366 0011662 262.5588 97.4308 14.95954024177029 CSIM 1 43793U 18099AM 22062.84235286 .00001730 00000-0 15361-3 0 9993 2 43793 97.6361 133.5985 0011812 256.0179 103.9730 14.97394420177075 Astrocast 0.1 1 43798U 18099AS 22062.73532008 .00001914 00000-0 17216-3 0 9993 2 43798 97.6359 133.5193 0011030 240.4423 119.5700 14.96780110177297 JO-97 1 43803U 18099AX 22062.70559344 .00001194 00000-0 11022-3 0 9998 2 43803 97.6320 132.3824 0013659 261.7814 98.1859 14.96410175177253 Suomi 100 1 43804U 18099AY 22062.85171789 .00001389 00000-0 12763-3 0 9997 2 43804 97.6311 132.4649 0013749 260.8215 99.1452 14.96350059177282 Al Farabi 2 1 43805U 18099AZ 22062.80490931 .00002209 00000-0 19803-3 0 9990 2 43805 97.6333 132.8007 0013462 259.0595 100.9114 14.96723415177299 CHOMPTT 1 43855U 18104G 22062.90717283 .00004743 00000-0 18457-3 0 9994 2 43855 85.0350 121.4200 0013972 266.9433 93.0213 15.25636642178625 ISAT 1 43879U 18111D 22062.69748692 .00002469 00000-0 21792-3 0 9991 2 43879 97.6738 330.2359 0011714 322.2301 37.8098 14.97261427173846 UWE-4 1 43880U 18111E 22062.71356444 .00001374 00000-0 12289-3 0 9991 2 43880 97.6763 330.8855 0011323 322.7768 37.2668 14.97461877173872 Sparrow 1 43881U 18111F 22062.73930819 .00001932 00000-0 17039-3 0 9996 2 43881 97.6761 331.1017 0011291 317.4500 42.5847 14.97546065173886 Lume 1 1 43908U 18111AJ 22062.63879363 .00006019 00000-0 22056-3 0 9997 2 43908 97.2067 313.8537 0021396 90.8351 269.5341 15.28142682177222 FO-98 1 43933U 19003B 22062.85250744 .00095009 00000-0 19519-2 0 9992 2 43933 97.1508 101.3077 0011246 171.5282 188.6160 15.45586561173842 FO-99 1 43937U 19003F 22062.88976548 .00006688 00000-0 24590-3 0 9997 2 43937 97.1450 100.4746 0022387 166.4892 193.6952 15.27967496173848 MYSat 1 1 44045U 18092F 22062.73865832 .00021663 00000-0 44299-3 0 9990 2 44045 51.6339 236.6094 0008000 72.7170 287.4692 15.46036572171475 AstroCast 0.2 1 44083U 19018F 22062.70386586 .00006448 00000-0 26307-3 0 9996 2 44083 97.3373 123.6813 0013339 137.3078 222.9199 15.24684628162363 AISTechSat 3 1 44103U 19018AB 22062.89091168 .00004958 00000-0 19704-3 0 9995 2 44103 97.3237 124.2958 0013630 143.7166 216.4999 15.25678273162541 AISat 1 1 44104U 19018AC 22062.79362404 .00005364 00000-0 15942-3 0 9991 2 44104 97.4016 145.6468 0055267 149.8463 210.5981 15.33664985163394 Prox-1 1 44339U 19036A 22062.61489681 .00002502 00000-0 52960-3 0 9991 2 44339 23.9995 141.2337 0010964 132.5694 227.5724 14.54285556142925 Oculus-ASR 1 44348U 19036K 22062.70047134 .00053135 00000-0 61575-3 0 9994 2 44348 28.5091 195.5448 0281189 214.6331 143.5655 15.25092695148326 Armadillo 1 44352U 19036P 22062.60401124 .00076912 -51994-5 67773-3 0 9999 2 44352 28.5274 146.0255 0215831 292.6412 65.1496 15.42690565148767 NO-104 1 44354U 19036R 22062.68804835 .00051847 00000-0 57846-3 0 9991 2 44354 28.5253 184.4422 0273647 229.8200 127.8138 15.27326244148430 NO-103 1 44355U 19036S 22062.37641277 .00165447 10052-5 82740-3 0 9993 2 44355 28.5206 77.2049 0132965 45.4246 315.7129 15.68429536149478 Move-IIb 1 44398U 19038N 22062.90095373 .00006457 00000-0 33878-3 0 9991 2 44398 97.6166 31.5854 0024278 130.1396 230.1969 15.15842006147034 SONATE 1 44400U 19038Q 22062.84651947 .00002482 00000-0 14150-3 0 9999 2 44400 97.6268 31.0540 0025412 134.0192 226.3141 15.13476635146954 BeeSat 9 1 44412U 19038AC 22062.90124150 .00004834 00000-0 26185-3 0 9994 2 44412 97.6245 31.6541 0022630 135.7374 224.5672 15.14877090146701 JAISAT-1 1 44419U 19038F 22062.85420027 .00005278 00000-0 28187-3 0 9994 2 44419 97.6249 32.3605 0021637 133.5254 226.7780 15.15356822147059 LightSail-2 1 44420U 19036AC 22062.74790441 .00028773 00000-0 50072-2 0 9994 2 44420 24.0035 98.3751 0011416 168.7974 191.2776 14.66665228141485 Taurus 1 1 44530U 19059C 22062.88725463 .00001222 00000-0 35110-3 0 9995 2 44530 98.5449 160.4592 0014798 82.9420 277.3446 14.46567868130583 Duchifat 3 1 44854U 19089C 22062.91144286 .00002356 00000-0 19100-3 0 9999 2 44854 36.9682 5.6244 0006749 76.4238 283.7278 15.00217830122074 OPS-SAT 1 44878U 19092F 22062.47051028 .00004927 00000-0 24455-3 0 9996 2 44878 97.4774 247.4858 0013073 355.0462 5.0640 15.18087708122104 TO-108 1 44881U 19093C 22062.88896713 .00000281 00000-0 42469-4 0 9999 2 44881 97.9009 143.5961 0015293 164.7125 195.4534 14.81580624119142 FloripaSat 1 1 44885U 19093G 22062.87963940 .00001032 00000-0 13437-3 0 9996 2 44885 97.9038 144.6184 0014844 171.7164 188.4286 14.82683958119207 RS-44 1 44909U 19096E 22062.72307705 .00000044 00000-0 13244-3 0 9999 2 44909 82.5206 300.5378 0216824 206.7218 152.2580 12.79712144101986 Phoenix 1 45258U 98067RB 22062.67513355 .00048729 00000-0 40157-3 0 9991 2 45258 51.6340 102.8899 0003843 97.8619 262.2815 15.69854234115707 BY70-2 1 45857U 20042B 22062.88655995 .00003353 00000-0 46837-3 0 9999 2 45857 97.9635 140.8433 0012203 100.1516 260.1058 14.78265297 89858 UPMSat 2 1 46276U 20061E 22062.42281659 .00002538 00000-0 13086-3 0 9992 2 46276 97.4031 135.6845 0002161 134.4705 225.6705 15.17253436 82797 AmicalSat 1 46287U 20061R 22062.72980488 .00003044 00000-0 18364-3 0 9990 2 46287 97.4578 135.0351 0001193 294.2224 65.8882 15.11476179 82498 SALSAT 1 46495U 20068K 22062.79396335 .00001590 00000-0 11956-3 0 9991 2 46495 97.7191 4.1753 0015449 276.1907 83.7559 15.03935704 78301 BY70-3 1 46839U 20079N 22062.82012869 .00011437 00000-0 31449-3 0 9996 2 46839 97.2118 136.6150 0006216 7.9105 59.4867 15.37336112 73998 SPOC 1 46921U 98067RR 22062.86056118 .00047459 00000-0 44395-3 0 9996 2 46921 51.6367 113.9968 0003721 12.2689 347.8397 15.66761402 75326 Bobcat-1 1 46922U 98067RS 22062.71694165 .00145109 00000-0 72972-3 0 9994 2 46922 51.6345 104.0370 0006489 27.0267 333.1072 15.80711005 75408 Neutron-1 1 46923U 98067RT 22062.38625070 .00044357 00000-0 41824-3 0 9992 2 46923 51.6374 116.8364 0003833 14.3781 345.7324 15.66593782 75273 CAPE 3 1 47309U 21002A 22062.89631785 .00005362 00000-0 23901-3 0 9991 2 47309 60.6844 40.9495 0021656 200.9103 159.1100 15.22614455 62368 AO-109 1 47311U 21002C 22062.46855606 .00005262 00000-0 23011-3 0 9998 2 47311 60.6874 40.6147 0018604 188.5180 171.5594 15.23355660 62300 MiTEE 1 1 47314U 21002F 22062.65789512 .00010193 00000-0 39804-3 0 9990 2 47314 60.6853 35.7419 0020737 176.1163 184.0091 15.26275326 62428 ExoCube 2 1 47319U 21002L 22062.89778260 .00004863 00000-0 21596-3 0 9995 2 47319 60.6850 39.8290 0019183 195.9578 164.0908 15.22959533 62323 UVSQ-SAT 1 47438U 21006AB 22062.73313889 .00003163 00000-0 17623-3 0 9994 2 47438 97.4521 123.9482 0010839 283.1440 76.8582 15.14286023 61272 YUSAT 1 1 47439U 21006AC 22062.85669748 .00004079 00000-0 22502-3 0 9995 2 47439 97.4524 124.1067 0010684 282.7167 77.2871 15.14469830 61294 SOMP 2b 1 47445U 21006AJ 22062.64689875 .00003796 00000-0 21208-3 0 9999 2 47445 97.4493 123.6105 0010519 287.9637 72.0447 15.14064513 61256 IDEASSat 1 47458U 21006AX 22062.88186432 .00002740 00000-0 15475-3 0 9997 2 47458 97.4582 124.2386 0009630 285.2503 74.7664 15.13914327 61281 RSP-01 1 47925U 98067SB 22062.86570912 .00055742 00000-0 55614-3 0 9994 2 47925 51.6381 123.0380 0003392 357.1526 2.9449 15.65082720 55178 TAUSAT-1 1 47926U 98067SC 22062.51442944 .00084308 00000-0 66337-3 0 9994 2 47926 51.6366 120.6580 0004669 357.0264 3.0705 15.70736368 55169 Tsuru 1 47927U 98067SD 22062.46792303 .00043349 00000-0 46721-3 0 9991 2 47927 51.6375 126.3743 0002899 349.5862 10.5072 15.63233639 55094 STARS-EC 1 47928U 98067SE 22062.85087878 .00122992 00000-0 86242-3 0 9993 2 47928 51.6353 119.1479 0008438 14.7555 345.3688 15.73268261 55207 Maya-2 1 47929U 98067SF 22062.46426554 .00044182 00000-0 47669-3 0 9993 2 47929 51.6378 126.3487 0002786 347.9808 12.1119 15.63198672 55054 OPUSAT-II 1 47930U 98067SG 22062.84914774 .00130796 00000-0 86884-3 0 9992 2 47930 51.6336 117.6398 0005555 10.6087 349.5028 15.74523256 55243 GuaraniSat-1 1 47931U 98067SH 22062.39296759 .00042789 00000-0 46016-3 0 9996 2 47931 51.6389 126.6356 0002840 346.5130 13.5788 15.63295996 55088 CubeSX-Sirius-HSE 1 47951U 21022V 22062.79098920 .00002291 00000-0 15846-3 0 9990 2 47951 97.5422 324.5434 0022432 143.1567 303.1995 15.06491342 52082 CubeSX-HSE 1 47952U 21022W 22062.77930491 .00002104 00000-0 14573-3 0 9996 2 47952 97.5416 324.5441 0022404 142.3283 289.5480 15.06530040 52084 KSU-Cubesat 1 47954U 21022Y 22062.67733584 .00003412 00000-0 23285-3 0 9994 2 47954 97.5413 324.5090 0021924 143.4288 216.8442 15.06676315 51790 GRBAlpha 1 47959U 21022AD 22062.78143248 .00002094 00000-0 14503-3 0 9991 2 47959 97.5412 324.5740 0022158 142.7573 303.7980 15.06543857 50904 Orbicraft-Zorkiy 1 47960U 21022AE 22062.89384324 .00001849 00000-0 12827-3 0 9991 2 47960 97.5427 324.7754 0021696 142.4494 285.3496 15.06633346 51613 STECCO 1 47962U 21022AG 22062.82779300 .00003209 00000-0 21158-3 0 9997 2 47962 97.5398 325.1539 0017203 136.2807 269.5702 15.08077077 50940 DO-111 1 47963U 21022AH 22062.70124357 .00007589 00000-0 46971-3 0 9996 2 47963 97.5425 325.5239 0019508 132.4367 227.8516 15.09927856 50975 MO-110 1 47964U 21022AJ 22062.68912786 .00004032 00000-0 26216-3 0 9995 2 47964 97.5406 325.1996 0020195 135.0385 225.2483 15.08395765 50932 FEES 1 48082U 21022AL 22062.70269434 .00004607 00000-0 29972-3 0 9995 2 48082 97.5421 325.0774 0016648 130.8118 229.4557 15.08352509 50633 RamSat 1 48850U 98067SL 22062.81435659 .00027342 00000-0 36824-3 0 9992 2 48850 51.6396 131.6613 0005262 20.9590 339.1617 15.57619538 40800 MO-112 1 48868U 98067SP 22062.62595426 .00118615 00000-0 91828-3 0 9998 2 48868 51.6348 125.8757 0007254 18.9103 341.2163 15.70958369 39643 TUBIN 1 48900U 21059X 22062.79868507 .00002256 00000-0 13154-3 0 9992 2 48900 97.5361 193.1364 0011658 105.7920 53.6062 15.12947407 37930 IT-SPINS 1 49017U 21013G 22062.71981987 .00005265 00000-0 22500-3 0 9990 2 49017 51.6035 184.8765 0008986 50.6821 309.4952 15.24436489 37643 LEDSAT 1 49069U 21073D 22062.89405199 .00002525 00000-0 16816-3 0 9997 2 49069 97.5340 137.8999 0026470 297.1628 62.6901 15.07743786 29922 CUTE 1 49263U 21088D 22062.91316958 .00001957 00000-0 15246-3 0 9990 2 49263 97.6030 132.9619 0022747 67.8201 292.5434 15.02162523 23571 Binar-1 1 49272U 98067SR 22062.44703165 .00027779 00000-0 39473-3 0 9997 2 49272 51.6393 136.6911 0004773 305.6518 54.4029 15.56166344 23098 Maya-3 1 49273U 98067SS 22062.64774861 .00037483 00000-0 49856-3 0 9990 2 49273 51.6394 135.0324 0004746 311.6268 48.4317 15.57790170 23139 Maya-4 1 49274U 98067ST 22062.65371697 .00037719 00000-0 50366-3 0 9992 2 49274 51.6392 135.0723 0004621 310.2071 49.8516 15.57683401 23134 CUAVA-1 1 49275U 98067SU 22062.80683186 .00035733 00000-0 48545-3 0 9999 2 49275 51.6415 134.3771 0004293 310.4811 149.4576 15.57248113 23102 TeikyoSat 4 1 49396U 21102B 22062.86119137 .00000737 00000-0 63072-4 0 9994 2 49396 97.5558 124.1472 0017914 248.8326 111.0984 15.00428181 17213 Z-Sat 1 49399U 21102E 22062.86375169 .00000914 00000-0 73796-4 0 9997 2 49399 97.5474 124.4967 0021660 229.4546 130.4793 15.02120512 17231 KOSEN 1 1 49402U 21102H 22062.86212034 .00001408 00000-0 10849-3 0 9991 2 49402 97.5425 124.5533 0021824 217.9758 141.9929 15.03057211 17246 HO-113 1 50466U 21131B 22062.93054401 .00000054 00000-0 32422-4 0 9993 2 50466 98.5884 140.2097 0005780 105.2405 254.9421 14.38445491 9745 Tevel 1 50999U 22002R 22062.88931523 .00003661 00000-0 20940-3 0 9993 2 50999 97.4930 131.7326 0012895 67.5298 292.7297 15.13220193 7452 Grizu-263a 1 51025U 22002AT 22062.14937007 .00006499 00000-0 36291-3 0 9994 2 51025 97.5104 131.1477 0014754 74.2130 286.0727 15.13772461 7346 NO-116 1 51031U 22002AZ 22062.41429076 .00005234 00000-0 29403-3 0 9996 2 51031 97.5055 131.3800 0015000 73.0322 287.2552 15.13650405 7381 IRIS-A 1 51044U 22002BN 22062.91171535 .00002221 00000-0 13136-3 0 9998 2 51044 97.4950 131.7149 0010904 72.3578 287.8842 15.12438965 7451 DELFI-PQ 1 51074U 22002CU 22062.43955846 .00005507 00000-0 29778-3 0 9992 2 51074 97.5187 131.5803 0015875 101.3992 258.9024 15.14975114 7395 Hades 1 51080U 22002DA 22061.91394574 .00003882 00000-0 21219-3 0 9992 2 51080 97.5202 131.0618 0015565 102.6968 257.6005 15.14781725 7312 EASAT-2 1 51081U 22002DB 22062.64109200 .00004196 00000-0 22902-3 0 9993 2 51081 97.5192 131.7746 0015897 100.4060 259.8964 15.14780549 7420 GASPACS 1 51439U 98067TB 22062.75320118 .00067629 00000-0 98488-3 0 9991 2 51439 51.6400 137.9759 0002608 191.7140 168.3791 15.55090457 5663 /EX
